| time (UTC) | temp C | wind direction | speed KPH | gust KPH | rain 1hr cm | rain 24hr cm | rain mn cm | humidity % | barometer mb |
| 20260906193302 | 24 | 203 | 6.4 | 9.7 | 0.00 | 0.00 | 0.00 | 84 | 1016.6 |
| 20260906192802 | 24 | 209 | 6.4 | 14.5 | 0.00 | 0.00 | 0.00 | 84 | 1016.6 |
| 20260906191809 | 24 | 161 | 1.6 | 19.3 | 0.00 | 0.00 | 0.00 | 85 | 1016.5 |
| 20260906191302 | 24 | 184 | 6.4 | 6.4 | 0.00 | 0.00 | 0.00 | 85 | 1016.6 |
| 20260906190802 | 24 | 88 | 0.0 | 9.7 | 0.00 | 0.00 | 0.00 | 85 | 1016.5 |
| 20260906190302 | 24 | 167 | 6.4 | 8.0 | 0.00 | 0.00 | 0.00 | 85 | 1016.5 |
| 20260906185306 | 24 | 123 | 4.8 | 19.3 | 0.00 | 0.00 | 0.00 | 84 | 1016.7 |
| 20260906184306 | 24 | 108 | 0.0 | 17.7 | 0.00 | 0.00 | 0.00 | 84 | 1016.5 |
| 20260906183807 | 24 | 33 | 4.8 | 11.3 | 0.00 | 0.00 | 0.00 | 84 | 1016.4 |
| 20260906183302 | 24 | 205 | 9.7 | 17.7 | 0.00 | 0.00 | 0.00 | 83 | 1016.4 |
| 20260906182802 | 25 | 168 | 8.0 | 16.1 | 0.00 | 0.00 | 0.00 | 83 | 1016.4 |
| 20260906181802 | 24 | 172 | 0.0 | 11.3 | 0.00 | 0.00 | 0.00 | 84 | 1016.5 |
| 20260906181302 | 24 | 358 | 0.0 | 4.8 | 0.00 | 0.00 | 0.00 | 85 | 1016.7 |
| 20260906180803 | 24 | 146 | 0.0 | 12.9 | 0.00 | 0.00 | 0.00 | 85 | 1016.7 |
| 20260906180302 | 24 | 161 | 12.9 | 19.3 | 0.00 | 0.00 | 0.00 | 83 | 1016.6 |
| 20260906175802 | 24 | 226 | 4.8 | 8.0 | 0.00 | 0.00 | 0.00 | 85 | 1016.6 |
| 20260906175320 | 24 | 201 | 9.7 | 11.3 | 0.00 | 0.00 | 0.00 | 86 | 1016.4 |
| 20260906174301 | 24 | 188 | 0.0 | 11.3 | 0.00 | 0.00 | 0.00 | 86 | 1016.5 |
| 20260906173809 | 24 | 167 | 0.0 | 6.4 | 0.00 | 0.00 | 0.00 | 87 | 1016.6 |
| 20260906173302 | 23 | 135 | 3.2 | 3.2 | 0.00 | 0.00 | 0.00 | 87 | 1016.8 |
| 20260906172802 | 23 | 140 | 3.2 | 14.5 | 0.00 | 0.00 | 0.00 | 87 | 1016.8 |
| 20260906172627 | 23 | 198 | 9.7 | 9.7 | 0.00 | 0.00 | 0.00 | 87 | 1016.8 |
| 20260906172340 | 23 | 198 | 9.7 | 9.7 | 0.00 | 0.00 | 0.00 | 87 | 1016.8 |
| 20260906171803 | 23 | 52 | 0.0 | 8.0 | 0.00 | 0.00 | 0.00 | 88 | 1016.8 |
| 20260906171302 | 23 | 178 | 0.0 | 11.3 | 0.00 | 0.00 | 0.00 | 89 | 1016.8 |
| 20260906170302 | 23 | 59 | 0.0 | 9.7 | 0.00 | 0.00 | 0.00 | 89 | 1017.0 |
| 20260906165803 | 23 | 133 | 9.7 | 14.5 | 0.00 | 0.00 | 0.00 | 88 | 1017.0 |
| 20260906165317 | 23 | 156 | 0.0 | 9.7 | 0.00 | 0.00 | 0.00 | 89 | 1017.1 |
| 20260906153301 | 22 | 358 | 0.0 | 6.4 | 0.00 | 0.00 | 0.00 | 93 | 1017.1 |
| 20260906152814 | 22 | 35 | 0.0 | 8.0 | 0.00 | 0.00 | 0.00 | 93 | 1017.2 |
| 20260906151801 | 22 | 253 | 0.0 | 6.4 | 0.00 | 0.00 | 0.00 | 94 | 1017.5 |
| 20260906150826 | 22 | 67 | 0.0 | 11.3 | 0.00 | 0.00 | 0.00 | 94 | 1017.5 |
| 20260906150301 | 22 | 26 | 0.0 | 3.2 | 0.00 | 0.00 | 0.00 | 95 | 1017.5 |
| 20260906145801 | 22 | 32 | 4.8 | 6.4 | 0.00 | 0.00 | 0.00 | 95 | 1017.5 |
| 20260906144801 | 22 | 177 | 0.0 | 4.8 | 0.00 | 0.00 | 0.00 | 95 | 1017.5 |
| 20260906143301 | 22 | 167 | 0.0 | 6.4 | 0.00 | 0.00 | 0.00 | 94 | 1017.3 |
| 20260906141354 | 22 | 56 | 0.0 | 8.0 | 0.00 | 0.00 | 0.00 | 95 | 1017.1 |
| 20260906141301 | 22 | 56 | 0.0 | 8.0 | 0.00 | 0.00 | 0.00 | 95 | 1017.1 |
| 20260906140801 | 23 | 85 | 9.7 | 11.3 | 0.00 | 0.00 | 0.00 | 95 | 1017.2 |
| 20260906134340 | 22 | 101 | 0.0 | 8.0 | 0.00 | 0.00 | 0.00 | 99 | 1017.0 |
| 20260906134302 | 22 | 101 | 0.0 | 8.0 | 0.00 | 0.00 | 0.00 | 99 | 1017.0 |
| 20260906133331 | 21 | 94 | 0.0 | 8.0 | 0.00 | 0.00 | 0.00 | 99 | 1017.0 |
| 20260906131801 | 21 | 82 | 3.2 | 11.3 | 0.00 | 0.00 | 0.00 | 99 | 1016.9 |
| 20260906131301 | 21 | 74 | 0.0 | 4.8 | 0.00 | 0.00 | 0.00 | 99 | 1016.8 |
| 20260906130803 | 21 | 95 | 0.0 | 4.8 | 0.00 | 0.00 | 0.00 | 99 | 1016.7 |
| 20260906130347 | 21 | 32 | 0.0 | 0.0 | 0.00 | 0.00 | 0.00 | 99 | 1016.7 |
| 20260906130301 | 21 | 32 | 0.0 | 0.0 | 0.00 | 0.00 | 0.00 | 99 | 1016.7 |
| 20260906125833 | 20 | 32 | 0.0 | 0.0 | 0.00 | 0.00 | 0.00 | 99 | 1016.6 |
| 20260906125801 | 20 | 32 | 0.0 | 0.0 | 0.00 | 0.00 | 0.00 | 99 | 1016.6 |
| 20260906125342 | 20 | 32 | 0.0 | 0.0 | 0.00 | 0.00 | 0.00 | 99 | 1016.6 |
| 20260906125308 | 20 | 32 | 0.0 | 0.0 | 0.00 | 0.00 | 0.00 | 99 | 1016.6 |
| 20260906124302 | 20 | 32 | 0.0 | 0.0 | 0.00 | 0.00 | 0.00 | 99 | 1016.7 |
| 20260906123847 | 20 | 32 | 0.0 | 0.0 | 0.00 | 0.00 | 0.00 | 99 | 1016.6 |
| 20260906123801 | 20 | 32 | 0.0 | 0.0 | 0.00 | 0.00 | 0.00 | 99 | 1016.6 |
| 20260906123301 | 20 | 32 | 0.0 | 6.4 | 0.00 | 0.00 | 0.00 | 99 | 1016.6 |
| 20260906122838 | 20 | 99 | 4.8 | 8.0 | 0.00 | 0.00 | 0.00 | 99 | 1016.6 |
| 20260906122803 | 20 | 99 | 4.8 | 8.0 | 0.00 | 0.00 | 0.00 | 99 | 1016.6 |
| 20260906121332 | 20 | 57 | 0.0 | 0.0 | 0.00 | 0.00 | 0.00 | 99 | 1016.6 |
| 20260906121301 | 20 | 57 | 0.0 | 0.0 | 0.00 | 0.00 | 0.00 | 99 | 1016.6 |
| 20260906120301 | 20 | 57 | 0.0 | 0.0 | 0.00 | 0.00 | 0.00 | 99 | 1016.5 |
| 20260906120019 | 20 | 57 | 0.0 | 0.0 | 0.00 | 0.00 | 0.00 | 99 | 1016.4 |
| 20260906115946 | 20 | 57 | 0.0 | 0.0 | 0.00 | 0.00 | 0.00 | 99 | 1016.4 |
| 20260906115836 | 20 | 57 | 0.0 | 0.0 | 0.00 | 0.00 | 0.00 | 99 | 1016.4 |
| 20260906115804 | 20 | 57 | 0.0 | 0.0 | 0.00 | 0.00 | 0.00 | 99 | 1016.4 |
| 20260906114832 | 20 | 57 | 0.0 | 0.0 | 0.00 | 0.00 | 0.00 | 99 | 1016.4 |
| 20260906114801 | 20 | 57 | 0.0 | 0.0 | 0.00 | 0.00 | 0.00 | 99 | 1016.4 |
| 20260906114518 | 20 | 57 | 0.0 | 0.0 | 0.00 | 0.00 | 0.00 | 99 | 1016.4 |
| 20260906114301 | 20 | 57 | 0.0 | 0.0 | 0.00 | 0.00 | 0.00 | 99 | 1016.4 |
| 20260906113816 | 20 | 57 | 0.0 | 0.0 | 0.00 | 0.00 | 0.00 | 99 | 1016.3 |
| 20260906113423 | 20 | 57 | 0.0 | 0.0 | 0.00 | 0.00 | 0.00 | 99 | 1016.2 |
| 20260906113301 | 20 | 57 | 0.0 | 0.0 | 0.00 | 0.00 | 0.00 | 99 | 1016.2 |
| 20260906112801 | 20 | 57 | 0.0 | 0.0 | 0.00 | 0.00 | 0.00 | 99 | 1016.2 |
| 20260906111837 | 20 | 57 | 0.0 | 0.0 | 0.00 | 0.00 | 0.00 | 99 | 1016.2 |
| 20260906111801 | 20 | 57 | 0.0 | 0.0 | 0.00 | 0.00 | 0.00 | 99 | 1016.2 |
| 20260906111306 | 20 | 57 | 0.0 | 0.0 | 0.00 | 0.00 | 0.00 | 99 | 1016.2 |
| 20260906110357 | 20 | 57 | 0.0 | 0.0 | 0.00 | 0.00 | 0.00 | 99 | 1016.2 |
| 20260906105837 | 20 | 57 | 0.0 | 0.0 | 0.00 | 0.00 | 0.00 | 99 | 1016.2 |
| 20260906105801 | 20 | 57 | 0.0 | 0.0 | 0.00 | 0.00 | 0.00 | 99 | 1016.2 |
| 20260906105512 | 20 | 57 | 0.0 | 0.0 | 0.00 | 0.00 | 0.00 | 99 | 1016.0 |
| 20260906105333 | 20 | 57 | 0.0 | 0.0 | 0.00 | 0.00 | 0.00 | 99 | 1016.0 |
| 20260906105305 | 20 | 57 | 0.0 | 0.0 | 0.00 | 0.00 | 0.00 | 99 | 1016.0 |
| 20260906103301 | 20 | 57 | 0.0 | 0.0 | 0.00 | 0.00 | 0.00 | 99 | 1016.1 |
| 20260906103030 | 20 | 57 | 0.0 | 0.0 | 0.00 | 0.00 | 0.00 | 99 | 1016.1 |
| 20260906102801 | 20 | 57 | 0.0 | 0.0 | 0.00 | 0.00 | 0.00 | 99 | 1016.1 |
| 20260906102429 | 20 | 57 | 0.0 | 0.0 | 0.00 | 0.00 | 0.00 | 99 | 1016.1 |
| 20260906102334 | 20 | 57 | 0.0 | 0.0 | 0.00 | 0.00 | 0.00 | 99 | 1016.1 |
| 20260906102305 | 20 | 57 | 0.0 | 0.0 | 0.00 | 0.00 | 0.00 | 99 | 1016.1 |
| 20260906102020 | 20 | 57 | 0.0 | 0.0 | 0.00 | 0.00 | 0.00 | 99 | 1016.0 |
| 20260906101801 | 20 | 57 | 0.0 | 0.0 | 0.00 | 0.00 | 0.00 | 99 | 1016.0 |
| 20260906101301 | 20 | 57 | 0.0 | 0.0 | 0.00 | 0.00 | 0.00 | 99 | 1016.0 |
| 20260906100815 | 20 | 57 | 0.0 | 0.0 | 0.00 | 0.00 | 0.00 | 99 | 1015.9 |
| 20260906100333 | 20 | 57 | 0.0 | 0.0 | 0.00 | 0.00 | 0.00 | 99 | 1015.9 |
| 20260906100301 | 20 | 57 | 0.0 | 0.0 | 0.00 | 0.00 | 0.00 | 99 | 1015.9 |
| 20260906095801 | 20 | 57 | 0.0 | 0.0 | 0.00 | 0.00 | 0.00 | 99 | 1015.9 |
| 20260906094559 | 21 | 57 | 0.0 | 0.0 | 0.00 | 0.00 | 0.00 | 99 | 1015.6 |
| 20260906094301 | 21 | 57 | 0.0 | 0.0 | 0.00 | 0.00 | 0.00 | 99 | 1015.6 |
| 20260906093301 | 21 | 57 | 0.0 | 0.0 | 0.00 | 0.00 | 0.00 | 99 | 1015.5 |
| 20260906092804 | 21 | 57 | 0.0 | 0.0 | 0.00 | 0.00 | 0.00 | 99 | 1015.4 |
| 20260906092229 | 21 | 57 | 0.0 | 0.0 | 0.00 | 0.00 | 0.00 | 98 | 1015.3 |
| 20260906091801 | 21 | 57 | 0.0 | 0.0 | 0.00 | 0.00 | 0.00 | 98 | 1015.3 |
| 20260906091306 | 21 | 57 | 0.0 | 0.0 | 0.00 | 0.00 | 0.00 | 98 | 1015.2 |
| 20260906090354 | 21 | 87 | 0.0 | 4.8 | 0.00 | 0.00 | 0.00 | 98 | 1015.1 |
| 20260906090301 | 21 | 87 | 0.0 | 4.8 | 0.00 | 0.00 | 0.00 | 98 | 1015.1 |
| 20260906085654 | 21 | 81 | 0.0 | 0.0 | 0.00 | 0.00 | 0.00 | 97 | 1015.2 |
| 20260906085455 | 21 | 81 | 0.0 | 0.0 | 0.00 | 0.00 | 0.00 | 97 | 1015.2 |
| 20260906085423 | 21 | 81 | 0.0 | 0.0 | 0.00 | 0.00 | 0.00 | 97 | 1015.2 |
| 20260906085337 | 21 | 81 | 0.0 | 0.0 | 0.00 | 0.00 | 0.00 | 97 | 1015.2 |
| 20260906085302 | 21 | 81 | 0.0 | 0.0 | 0.00 | 0.00 | 0.00 | 97 | 1015.2 |
| 20260906085242 | 21 | 84 | 0.0 | 4.8 | 0.00 | 0.00 | 0.00 | 97 | 1015.2 |
| 20260906084801 | 21 | 84 | 0.0 | 4.8 | 0.00 | 0.00 | 0.00 | 97 | 1015.2 |
| 20260906084301 | 21 | 73 | 0.0 | 0.0 | 0.00 | 0.00 | 0.00 | 97 | 1015.2 |
| 20260906083811 | 21 | 67 | 0.0 | 6.4 | 0.00 | 0.00 | 0.00 | 97 | 1015.2 |
| 20260906083341 | 21 | 45 | 0.0 | 4.8 | 0.00 | 0.00 | 0.00 | 97 | 1015.1 |
| 20260906083302 | 21 | 45 | 0.0 | 4.8 | 0.00 | 0.00 | 0.00 | 97 | 1015.1 |
| 20260906082848 | 21 | 75 | 0.0 | 0.0 | 0.00 | 0.00 | 0.00 | 96 | 1015.1 |
| 20260906082803 | 21 | 75 | 0.0 | 0.0 | 0.00 | 0.00 | 0.00 | 96 | 1015.1 |
| 20260906082152 | 21 | 75 | 0.0 | 0.0 | 0.00 | 0.00 | 0.00 | 96 | 1014.8 |
| 20260906081836 | 21 | 75 | 0.0 | 0.0 | 0.00 | 0.00 | 0.00 | 96 | 1014.8 |
| 20260906081801 | 21 | 75 | 0.0 | 0.0 | 0.00 | 0.00 | 0.00 | 96 | 1014.8 |
| 20260906081302 | 21 | 75 | 0.0 | 0.0 | 0.00 | 0.00 | 0.00 | 96 | 1014.7 |
| 20260906080415 | 22 | 75 | 0.0 | 0.0 | 0.00 | 0.00 | 0.00 | 96 | 1014.7 |
| 20260906080344 | 22 | 75 | 0.0 | 0.0 | 0.00 | 0.00 | 0.00 | 96 | 1014.7 |
| 20260906080301 | 22 | 75 | 0.0 | 0.0 | 0.00 | 0.00 | 0.00 | 96 | 1014.7 |
| 20260906080224 | 22 | 75 | 0.0 | 0.0 | 0.00 | 0.00 | 0.00 | 96 | 1014.8 |
| 20260906075801 | 22 | 75 | 0.0 | 0.0 | 0.00 | 0.00 | 0.00 | 96 | 1014.8 |
| 20260906074801 | 22 | 75 | 0.0 | 6.4 | 0.00 | 0.00 | 0.00 | 95 | 1015.0 |
| 20260906074339 | 22 | 90 | 4.8 | 4.8 | 0.00 | 0.00 | 0.00 | 95 | 1014.8 |
| 20260906074306 | 22 | 90 | 4.8 | 4.8 | 0.00 | 0.00 | 0.00 | 95 | 1014.8 |
| 20260906072815 | 22 | 99 | 0.0 | 0.0 | 0.00 | 0.00 | 0.00 | 95 | 1015.1 |
| 20260906072305 | 22 | 99 | 0.0 | 0.0 | 0.00 | 0.00 | 0.00 | 95 | 1015.1 |
| 20260906071851 | 22 | 99 | 0.0 | 0.0 | 0.00 | 0.00 | 0.00 | 95 | 1015.2 |
| 20260906071811 | 22 | 99 | 0.0 | 0.0 | 0.00 | 0.00 | 0.00 | 95 | 1015.2 |
| 20260906064807 | 22 | 115 | 0.0 | 0.0 | 0.00 | 0.00 | 0.00 | 96 | 1015.5 |
| 20260906064604 | 22 | 115 | 0.0 | 0.0 | 0.00 | 0.00 | 0.00 | 96 | 1015.6 |
| 20260906064303 | 22 | 115 | 0.0 | 0.0 | 0.00 | 0.00 | 0.00 | 96 | 1015.6 |
| 20260906063837 | 22 | 115 | 0.0 | 0.0 | 0.00 | 0.00 | 0.00 | 96 | 1015.6 |
| 20260906063802 | 22 | 115 | 0.0 | 0.0 | 0.00 | 0.00 | 0.00 | 96 | 1015.6 |
| 20260906063103 | 22 | 115 | 0.0 | 0.0 | 0.00 | 0.00 | 0.00 | 96 | 1015.5 |
| 20260906062801 | 22 | 115 | 0.0 | 0.0 | 0.00 | 0.00 | 0.00 | 96 | 1015.5 |
| 20260906062305 | 22 | 115 | 0.0 | 0.0 | 0.00 | 0.00 | 0.00 | 96 | 1015.4 |
| 20260906061301 | 22 | 115 | 0.0 | 0.0 | 0.00 | 0.00 | 0.00 | 96 | 1015.5 |
| 20260906055801 | 22 | 115 | 0.0 | 0.0 | 0.00 | 0.00 | 0.00 | 96 | 1015.5 |
| 20260906054051 | 22 | 115 | 0.0 | 0.0 | 0.00 | 0.00 | 0.00 | 95 | 1015.4 |
| 20260906053852 | 22 | 115 | 0.0 | 0.0 | 0.00 | 0.00 | 0.00 | 95 | 1015.4 |
| 20260906053812 | 22 | 115 | 0.0 | 0.0 | 0.00 | 0.00 | 0.00 | 95 | 1015.4 |
| 20260906053600 | 22 | 115 | 0.0 | 0.0 | 0.00 | 0.00 | 0.00 | 95 | 1015.4 |
| 20260906053332 | 22 | 115 | 0.0 | 0.0 | 0.00 | 0.00 | 0.00 | 95 | 1015.4 |
| 20260906053301 | 22 | 115 | 0.0 | 0.0 | 0.00 | 0.00 | 0.00 | 95 | 1015.4 |
| 20260906053122 | 22 | 115 | 0.0 | 0.0 | 0.00 | 0.00 | 0.00 | 95 | 1015.5 |
| 20260906052833 | 22 | 115 | 0.0 | 0.0 | 0.00 | 0.00 | 0.00 | 95 | 1015.5 |
| 20260906052801 | 22 | 115 | 0.0 | 0.0 | 0.00 | 0.00 | 0.00 | 95 | 1015.5 |
| 20260906052507 | 22 | 115 | 0.0 | 0.0 | 0.00 | 0.00 | 0.00 | 95 | 1015.5 |
| 20260906052334 | 22 | 115 | 0.0 | 0.0 | 0.00 | 0.00 | 0.00 | 95 | 1015.5 |
| 20260906052305 | 22 | 115 | 0.0 | 0.0 | 0.00 | 0.00 | 0.00 | 95 | 1015.5 |
| 20260906052131 | 22 | 115 | 0.0 | 0.0 | 0.00 | 0.00 | 0.00 | 95 | 1015.4 |
| 20260906051801 | 22 | 115 | 0.0 | 0.0 | 0.00 | 0.00 | 0.00 | 95 | 1015.4 |
| 20260906051650 | 22 | 115 | 0.0 | 0.0 | 0.00 | 0.00 | 0.00 | 94 | 1015.5 |
| 20260906051335 | 22 | 115 | 0.0 | 0.0 | 0.00 | 0.00 | 0.00 | 94 | 1015.5 |
| 20260906051301 | 22 | 115 | 0.0 | 0.0 | 0.00 | 0.00 | 0.00 | 94 | 1015.5 |
| 20260906050408 | 22 | 115 | 0.0 | 0.0 | 0.00 | 0.00 | 0.00 | 94 | 1015.7 |
| 20260906050301 | 22 | 115 | 0.0 | 0.0 | 0.00 | 0.00 | 0.00 | 94 | 1015.7 |
| 20260906050216 | 22 | 115 | 0.0 | 0.0 | 0.00 | 0.00 | 0.00 | 93 | 1015.8 |
| 20260906045840 | 22 | 115 | 0.0 | 0.0 | 0.00 | 0.00 | 0.00 | 93 | 1015.8 |
| 20260906045806 | 22 | 115 | 0.0 | 0.0 | 0.00 | 0.00 | 0.00 | 93 | 1015.8 |
| 20260906045343 | 22 | 115 | 0.0 | 0.0 | 0.00 | 0.00 | 0.00 | 93 | 1015.8 |
| 20260906045305 | 22 | 115 | 0.0 | 0.0 | 0.00 | 0.00 | 0.00 | 93 | 1015.8 |
| 20260906044339 | 23 | 115 | 0.0 | 0.0 | 0.00 | 0.00 | 0.00 | 93 | 1015.8 |
| 20260906044301 | 23 | 115 | 0.0 | 0.0 | 0.00 | 0.00 | 0.00 | 93 | 1015.8 |
| 20260906043834 | 23 | 115 | 0.0 | 0.0 | 0.00 | 0.00 | 0.00 | 93 | 1015.8 |
| 20260906043801 | 23 | 115 | 0.0 | 0.0 | 0.00 | 0.00 | 0.00 | 93 | 1015.8 |
| 20260906043302 | 23 | 115 | 0.0 | 0.0 | 0.00 | 0.00 | 0.00 | 92 | 1015.8 |
| 20260906042801 | 23 | 115 | 0.0 | 0.0 | 0.00 | 0.00 | 0.00 | 92 | 1015.8 |
| 20260906042332 | 23 | 115 | 0.0 | 0.0 | 0.00 | 0.00 | 0.00 | 92 | 1015.8 |
| 20260906042302 | 23 | 115 | 0.0 | 0.0 | 0.00 | 0.00 | 0.00 | 92 | 1015.8 |
| 20260906042120 | 23 | 115 | 0.0 | 0.0 | 0.00 | 0.00 | 0.00 | 92 | 1015.9 |
| 20260906041801 | 23 | 115 | 0.0 | 0.0 | 0.00 | 0.00 | 0.00 | 92 | 1015.9 |
| 20260906041302 | 23 | 115 | 0.0 | 0.0 | 0.00 | 0.00 | 0.00 | 92 | 1015.9 |
| 20260906040805 | 23 | 115 | 0.0 | 0.0 | 0.00 | 0.00 | 0.00 | 92 | 1015.8 |
| 20260906040301 | 23 | 115 | 0.0 | 0.0 | 0.00 | 0.00 | 0.00 | 92 | 1015.8 |
| 20260906034805 | 23 | 40 | 0.0 | 9.7 | 0.00 | 0.00 | 0.00 | 92 | 1015.9 |
| 20260906034301 | 23 | 149 | 0.0 | 0.0 | 0.00 | 0.00 | 0.00 | 92 | 1015.9 |
| 20260906033807 | 23 | 149 | 0.0 | 0.0 | 0.00 | 0.00 | 0.00 | 92 | 1015.8 |
| 20260906033301 | 23 | 149 | 0.0 | 0.0 | 0.00 | 0.00 | 0.00 | 92 | 1015.8 |
| 20260906033139 | 23 | 149 | 0.0 | 0.0 | 0.00 | 0.00 | 0.00 | 91 | 1015.8 |
| 20260906032801 | 23 | 149 | 0.0 | 0.0 | 0.00 | 0.00 | 0.00 | 91 | 1015.8 |
| 20260906032717 | 23 | 149 | 0.0 | 0.0 | 0.00 | 0.00 | 0.00 | 91 | 1015.8 |
| 20260906032305 | 23 | 149 | 0.0 | 0.0 | 0.00 | 0.00 | 0.00 | 91 | 1015.8 |
| 20260906030853 | 23 | 149 | 0.0 | 0.0 | 0.00 | 0.00 | 0.00 | 90 | 1015.8 |
| 20260906030812 | 23 | 149 | 0.0 | 0.0 | 0.00 | 0.00 | 0.00 | 90 | 1015.8 |
| 20260906030622 | 23 | 149 | 0.0 | 0.0 | 0.00 | 0.00 | 0.00 | 90 | 1015.8 |
| 20260906030304 | 23 | 149 | 0.0 | 0.0 | 0.00 | 0.00 | 0.00 | 90 | 1015.8 |
| 20260906025803 | 23 | 149 | 0.0 | 0.0 | 0.00 | 0.00 | 0.00 | 90 | 1015.9 |
| 20260906024301 | 23 | 149 | 0.0 | 0.0 | 0.00 | 0.00 | 0.00 | 89 | 1015.9 |
| 20260906022801 | 23 | 149 | 0.0 | 0.0 | 0.00 | 0.00 | 0.00 | 88 | 1015.8 |
| 20260906022302 | 23 | 149 | 0.0 | 0.0 | 0.00 | 0.00 | 0.00 | 88 | 1015.6 |
| 20260906021801 | 24 | 149 | 0.0 | 0.0 | 0.00 | 0.00 | 0.00 | 88 | 1015.6 |
| 20260906020742 | 24 | 149 | 0.0 | 0.0 | 0.00 | 0.00 | 0.00 | 87 | 1015.1 |
| 20260906020344 | 24 | 149 | 0.0 | 0.0 | 0.00 | 0.00 | 0.00 | 87 | 1015.1 |
| 20260906020301 | 24 | 149 | 0.0 | 0.0 | 0.00 | 0.00 | 0.00 | 87 | 1015.1 |
| 20260906015714 | 24 | 171 | 0.0 | 0.0 | 0.00 | 0.00 | 0.00 | 87 | 1014.7 |
| 20260906015325 | 24 | 171 | 0.0 | 0.0 | 0.00 | 0.00 | 0.00 | 87 | 1014.7 |
| 20260906014558 | 25 | 147 | 0.0 | 4.8 | 0.00 | 0.00 | 0.00 | 86 | 1014.5 |
| 20260906014301 | 25 | 147 | 0.0 | 4.8 | 0.00 | 0.00 | 0.00 | 86 | 1014.5 |
| 20260906013556 | 25 | 191 | 0.0 | 8.0 | 0.00 | 0.00 | 0.00 | 85 | 1014.2 |
| 20260906013401 | 25 | 191 | 0.0 | 8.0 | 0.00 | 0.00 | 0.00 | 85 | 1014.2 |
| 20260906013307 | 25 | 191 | 0.0 | 8.0 | 0.00 | 0.00 | 0.00 | 85 | 1014.2 |
| 20260906013122 | 25 | 172 | 9.7 | 9.7 | 0.00 | 0.00 | 0.00 | 85 | 1014.1 |
| 20260906012801 | 25 | 172 | 9.7 | 9.7 | 0.00 | 0.00 | 0.00 | 85 | 1014.1 |
| 20260906012116 | 25 | 126 | 0.0 | 0.0 | 0.00 | 0.00 | 0.00 | 84 | 1013.9 |
| 20260906011801 | 25 | 126 | 0.0 | 0.0 | 0.00 | 0.00 | 0.00 | 84 | 1013.9 |
| 20260906011302 | 25 | 126 | 0.0 | 0.0 | 0.00 | 0.00 | 0.00 | 83 | 1013.7 |
| 20260906011037 | 25 | 126 | 0.0 | 3.2 | 0.00 | 0.00 | 0.00 | 82 | 1013.7 |
| 20260906010801 | 25 | 126 | 0.0 | 3.2 | 0.00 | 0.00 | 0.00 | 82 | 1013.7 |
| 20260906010649 | 25 | 210 | 3.2 | 6.4 | 0.00 | 0.00 | 0.00 | 82 | 1013.6 |
| 20260906010552 | 25 | 210 | 3.2 | 6.4 | 0.00 | 0.00 | 0.00 | 82 | 1013.6 |
| 20260906010333 | 25 | 210 | 3.2 | 6.4 | 0.00 | 0.00 | 0.00 | 82 | 1013.6 |
| 20260906010301 | 25 | 210 | 3.2 | 6.4 | 0.00 | 0.00 | 0.00 | 82 | 1013.6 |
| 20260906005801 | 25 | 168 | 0.0 | 11.3 | 0.00 | 0.00 | 0.00 | 81 | 1013.6 |
| 20260906005518 | 26 | 123 | 0.0 | 9.7 | 0.00 | 0.00 | 0.00 | 81 | 1013.6 |
| 20260906005338 | 26 | 123 | 0.0 | 9.7 | 0.00 | 0.00 | 0.00 | 81 | 1013.6 |
| 20260906005301 | 26 | 123 | 0.0 | 9.7 | 0.00 | 0.00 | 0.00 | 81 | 1013.6 |
| 20260906004056 | 26 | 118 | 4.8 | 12.9 | 0.00 | 0.00 | 0.00 | 79 | 1013.4 |
| 20260906003813 | 26 | 118 | 4.8 | 12.9 | 0.00 | 0.00 | 0.00 | 79 | 1013.4 |
| 20260906003638 | 26 | 187 | 8.0 | 17.7 | 0.00 | 0.00 | 0.00 | 78 | 1013.5 |
| 20260906003301 | 26 | 187 | 8.0 | 17.7 | 0.00 | 0.00 | 0.00 | 78 | 1013.5 |
| 20260906002801 | 26 | 165 | 0.0 | 0.0 | 0.00 | 0.00 | 0.00 | 78 | 1013.5 |
| 20260906002305 | 26 | 165 | 0.0 | 14.5 | 0.00 | 0.00 | 0.00 | 78 | 1013.4 |
| 20260906002040 | 26 | 172 | 0.0 | 4.8 | 0.00 | 0.00 | 0.00 | 77 | 1013.4 |
| 20260906001831 | 26 | 172 | 0.0 | 4.8 | 0.00 | 0.00 | 0.00 | 77 | 1013.4 |
| 20260906001801 | 26 | 172 | 0.0 | 4.8 | 0.00 | 0.00 | 0.00 | 77 | 1013.4 |
| 20260906001307 | 26 | 123 | 0.0 | 9.7 | 0.00 | 0.00 | 0.00 | 77 | 1013.3 |
| 20260906000538 | 27 | 137 | 4.8 | 11.3 | 0.00 | 0.00 | 0.00 | 76 | 1013.2 |
| 20260906000303 | 27 | 137 | 4.8 | 11.3 | 0.00 | 0.00 | 0.00 | 76 | 1013.2 |
| 20260905235539 | 27 | 170 | 0.0 | 6.4 | 0.00 | 0.00 | 0.00 | 75 | 1013.1 |
| 20260905235334 | 27 | 170 | 0.0 | 6.4 | 0.00 | 0.00 | 0.00 | 75 | 1013.1 |
| 20260905235306 | 27 | 170 | 0.0 | 6.4 | 0.00 | 0.00 | 0.00 | 75 | 1013.1 |
| 20260905234801 | 27 | 185 | 0.0 | 12.9 | 0.00 | 0.00 | 0.00 | 74 | 1013.2 |
| 20260905233114 | 28 | 82 | 0.0 | 0.0 | 0.00 | 0.00 | 0.00 | 70 | 1013.1 |
| 20260905232801 | 28 | 82 | 0.0 | 0.0 | 0.00 | 0.00 | 0.00 | 70 | 1013.1 |
| 20260905232305 | 28 | 82 | 0.0 | 6.4 | 0.00 | 0.00 | 0.00 | 70 | 1013.0 |
| 20260905231801 | 28 | 67 | 0.0 | 0.0 | 0.00 | 0.00 | 0.00 | 70 | 1012.8 |
| 20260905230812 | 28 | 77 | 1.6 | 11.3 | 0.00 | 0.00 | 0.00 | 68 | 1012.8 |
| 20260905225305 | 28 | 40 | 0.0 | 9.7 | 0.00 | 0.00 | 0.00 | 69 | 1012.7 |
| 20260905224801 | 28 | 102 | 6.4 | 11.3 | 0.00 | 0.00 | 0.00 | 69 | 1012.5 |
| 20260905223812 | 28 | 33 | 8.0 | 11.3 | 0.00 | 0.00 | 0.00 | 70 | 1012.5 |
| 20260905223301 | 27 | 88 | 6.4 | 9.7 | 0.00 | 0.00 | 0.00 | 70 | 1012.4 |
| 20260905223202 | 27 | 33 | 14.5 | 17.7 | 0.00 | 0.00 | 0.00 | 70 | 1012.3 |
| 20260905222801 | 27 | 33 | 14.5 | 17.7 | 0.00 | 0.00 | 0.00 | 70 | 1012.3 |
| 20260905222333 | 27 | 102 | 8.0 | 11.3 | 0.00 | 0.00 | 0.00 | 71 | 1012.4 |
| 20260905222305 | 27 | 102 | 8.0 | 11.3 | 0.00 | 0.00 | 0.00 | 71 | 1012.4 |
| 20260905221836 | 27 | 57 | 9.7 | 17.7 | 0.00 | 0.00 | 0.00 | 71 | 1012.4 |
| 20260905221801 | 27 | 57 | 9.7 | 17.7 | 0.00 | 0.00 | 0.00 | 71 | 1012.4 |
| 20260905221333 | 27 | 60 | 0.0 | 19.3 | 0.00 | 0.00 | 0.00 | 72 | 1012.4 |
| 20260905221301 | 27 | 60 | 0.0 | 19.3 | 0.00 | 0.00 | 0.00 | 72 | 1012.4 |
| 20260905220817 | 27 | 132 | 12.9 | 16.1 | 0.00 | 0.00 | 0.00 | 71 | 1012.5 |
| 20260905220301 | 27 | 102 | 0.0 | 12.9 | 0.00 | 0.00 | 0.00 | 73 | 1012.6 |
| 20260905215801 | 27 | 90 | 1.6 | 14.5 | 0.00 | 0.00 | 0.00 | 73 | 1012.6 |
| 20260905214856 | 27 | 15 | 4.8 | 12.9 | 0.00 | 0.00 | 0.00 | 73 | 1012.9 |
| 20260905214803 | 27 | 84 | 0.0 | 14.5 | 0.00 | 0.00 | 0.00 | 73 | 1012.8 |
| 20260905214301 | 27 | 15 | 4.8 | 12.9 | 0.00 | 0.00 | 0.00 | 73 | 1012.9 |
| 20260905213839 | 27 | 97 | 8.0 | 14.5 | 0.00 | 0.00 | 0.00 | 72 | 1012.8 |
| 20260905213804 | 27 | 97 | 8.0 | 14.5 | 0.00 | 0.00 | 0.00 | 72 | 1012.8 |
| 20260905213301 | 27 | 95 | 8.0 | 16.1 | 0.00 | 0.00 | 0.00 | 71 | 1013.0 |
| 20260905213005 | 28 | 52 | 14.5 | 14.5 | 0.00 | 0.00 | 0.00 | 69 | 1013.0 |
| 20260905212801 | 27 | 60 | 4.8 | 11.3 | 0.00 | 0.00 | 0.00 | 71 | 1013.0 |